Wind_Speed
10 9 8 9 10 12 13 13 14 14 13 13 12 13 13 12 13 13 14 14 14 14 14 15 15 15 16 16 16 16 15 14 14 14 13 13 14 14 14 14 14 14
11 10 9 9 10 11 12 14 14 14 14 13 13 13 13 13 12 13 14 14 13 14 14 14 15 15 15 15 15 15 15 15 14 14 14 13 14 14 14 14 14 15
12 11 11 10 10 11 12 13 14 14 15 15 14 14 13 13 14 13 14 14 14 14 14 14 14 14 15 15 15 15 14 14 14 15 14 13 13 13 14 14 14 15
12 12 12 12 12 13 13 13 13 14 15 15 15 15 15 15 15 14 14 14 14 14 14 14 14 14 15 15 15 15 15 15 15 15 15 14 14 14 14 14 14 15
13 13 13 13 14 14 14 14 14 14 14 15 15 15 16 15 15 15 14 14 14 15 15 14 15 15 15 15 15 15 16 15 16 16 16 15 14 14 14 14 14 14
14 14 13 14 15 16 16 16 15 15 15 15 15 16 16 16 16 16 15 15 14 15 16 15 16 16 16 16 16 16 16 16 16 17 16 15 15 15 14 15 15 15
16 16 15 15 15 16 17 17 17 17 17 17 17 17 17 16 16 17 17 16 15 16 16 16 17 16 16 17 17 17 16 16 17 17 16 15 16 15 15 15 16 15
18 17 17 16 16 16 17 17 18 18 18 19 18 18 19 18 18 18 18 18 17 17 17 17 18 17 17 17 17 17 17 17 17 18 17 16 16 15 15 16 16 16
19 20 19 18 18 17 17 17 17 18 18 19 19 19 20 20 20 20 20 19 18 19 19 19 19 18 18 18 18 18 18 17 18 18 18 16 16 15 15 16 17 16
20 21 20 20 20 19 19 18 18 18 18 19 19 20 20 21 21 21 21 20 20 20 20 20 20 19 19 19 19 19 19 18 18 19 19 17 17 16 16 16 17 17
20 20 20 21 21 21 21 20 20 19 19 19 19 19 21 21 22 22 22 22 21 21 21 21 21 21 21 20 20 20 20 19 19 20 20 19 18 18 18 18 18 18
22 21 21 21 22 22 22 21 21 20 20 20 19 19 20 21 22 23 23 23 23 22 22 22 22 22 22 22 21 21 21 21 21 21 21 21 20 19 19 19 19 19
26 24 22 22 22 23 23 22 22 22 21 21 21 21 21 21 22 23 23 24 24 23 23 23 23 23 23 23 23 23 23 23 22 23 23 22 21 20 20 19 19 20
29 27 25 24 24 24 25 24 24 23 23 24 24 24 23 22 22 22 24 24 23 23 24 23 24 24 24 25 24 24 24 24 24 24 24 24 23 21 21 20 20 20
30 30 29 28 26 26 26 25 26 27 26 26 26 26 25 24 23 23 23 24 24 24 24 24 25 25 25 26 25 25 25 25 25 25 25 25 24 23 22 21 21 21
31 31 31 29 26 26 27 27 28 29 29 28 27 27 26 25 26 24 23 23 24 25 25 24 25 26 26 26 26 25 25 25 26 26 26 26 25 24 23 22 22 22
31 31 32 30 27 28 29 29 29 29 28 29 29 28 28 28 28 27 26 25 24 25 25 25 25 26 27 28 27 26 25 26 27 26 27 27 26 24 24 24 24 24
31 31 33 33 31 30 30 29 30 29 28 28 29 30 30 30 29 28 28 28 27 26 25 26 27 28 29 29 28 26 26 26 27 27 28 28 27 26 26 26 25 26
32 33 34 34 33 32 30 30 30 28 27 28 29 31 32 30 29 29 30 31 30 28 28 29 29 29 29 29 28 27 27 27 27 28 29 29 29 27 26 26 26 26
26 29 31 32 34 34 33 32 31 29 28 29 30 31 32 31 31 31 31 31 32 31 30 32 32 31 29 29 29 28 27 27 28 29 29 30 31 28 25 25 26 26
20 22 24 25 30 36 37 35 32 29 29 30 31 32 33 33 33 33 32 31 31 32 32 33 35 33 32 31 31 30 28 28 29 30 30 31 33 31 25 25 27 27
22 23 21 19 21 26 31 32 30 28 30 31 32 34 35 35 35 35 35 33 32 31 31 33 36 36 36 36 35 32 31 30 30 31 31 32 34 33 28 26 27 29
21 20 17 14 13 14 17 20 23 27 31 32 33 35 36 37 38 38 38 37 35 34 32 33 35 36 36 37 37 34 33 32 32 32 32 32 34 35 32 29 29 31
15 15 14 12 11 10 10 12 15 20 26 29 31 33 35 36 37 39 40 39 38 38 36 35 35 36 37 37 37 36 35 33 34 34 33 33 35 36 34 33 33 33
10 11 12 11 9 7 7 8 8 11 15 19 21 26 34 40 40 38 40 41 41 41 40 38 37 37 38 38 37 37 37 35 35 35 35 34 35 36 35 34 34 36
6 6 7 9 10 10 10 9 8 9 11 12 14 20 26 33 37 35 35 36 37 38 38 39 38 37 37 38 37 36 36 35 35 35 35 34 35 35 34 33 34 37
Wind_Direction
214 207 200 198 201 203 203 204 204 205 207 205 203 203 205 206 206 205 206 208 212 216 218 221 223 226 228 230 233 236 237 238 238 240 241 244 246 246 248 250 251 253
220 217 212 205 204 205 203 205 208 209 210 211 210 210 210 213 215 216 217 215 217 221 223 226 228 229 231 233 235 237 238 240 240 241 242 243 247 247 248 250 252 254
223 222 220 216 212 211 208 208 211 213 214 215 217 217 217 220 223 225 226 225 226 228 229 231 233 233 234 235 237 238 237 238 240 243 245 246 249 250 249 250 252 255
221 222 221 221 218 217 216 214 214 216 218 219 220 222 223 226 229 231 232 233 234 235 236 238 238 238 238 237 238 240 239 240 242 245 247 247 249 252 252 252 253 254
218 220 220 221 221 222 222 220 220 221 223 224 224 227 228 230 233 235 236 237 238 241 241 242 243 243 243 243 243 243 243 245 246 247 249 251 251 253 254 254 254 255
217 219 220 221 221 224 227 226 226 225 227 229 229 232 233 233 235 237 239 241 241 244 245 245 247 247 249 249 248 248 248 249 250 250 250 253 254 253 253 255 256 257
218 220 221 223 223 225 227 229 230 229 229 232 234 236 237 237 239 240 243 244 243 244 247 249 250 250 252 252 251 252 252 252 255 255 252 251 252 253 254 258 259 261
219 221 221 223 224 226 229 231 234 234 234 235 236 238 240 241 243 245 246 245 245 246 247 250 251 250 251 253 253 255 256 256 258 260 260 257 257 256 256 260 262 263
220 222 222 224 225 226 227 230 233 235 236 237 238 241 242 243 244 246 248 247 245 246 246 248 250 250 250 252 254 256 257 258 259 261 263 262 262 261 259 261 264 264
224 225 223 223 226 228 229 229 230 233 235 236 238 242 245 245 244 245 247 247 247 246 246 248 250 250 250 251 253 255 256 257 258 260 263 263 263 263 264 265 265 265
226 229 229 227 226 228 231 232 231 232 234 236 237 240 245 248 248 246 246 247 248 248 248 249 250 251 251 251 252 254 255 256 257 259 262 264 265 265 265 265 266 266
226 226 230 231 230 228 230 233 234 234 235 237 238 238 241 246 249 250 248 246 247 249 248 249 250 251 252 252 253 254 256 256 257 258 260 261 261 261 262 263 264 264
228 228 228 231 233 232 230 230 233 234 235 237 238 239 239 240 246 250 251 249 248 248 249 249 250 252 253 254 254 255 257 258 258 259 259 259 257 257 257 258 259 261
226 227 229 231 233 234 232 230 232 233 234 235 236 237 237 237 240 245 251 254 250 246 246 248 251 252 253 255 256 257 259 259 259 259 260 261 260 258 256 254 254 257
233 229 227 228 231 236 235 233 234 235 236 238 239 240 241 241 241 240 244 251 252 249 248 250 253 254 254 255 256 257 258 259 260 261 261 261 260 259 260 259 258 259
246 242 236 230 229 237 240 236 235 237 239 241 243 243 244 246 247 244 241 244 250 254 254 252 253 255 256 256 256 257 258 259 259 260 261 262 262 262 264 265 265 264
251 254 251 244 235 235 239 239 238 239 240 242 244 245 245 246 248 250 247 243 244 249 254 256 255 254 254 254 253 254 257 259 260 260 261 263 265 266 266 265 265 266
256 257 257 255 247 238 236 237 240 242 242 243 245 246 246 246 247 250 250 247 245 244 247 251 252 251 253 254 252 250 251 253 256 260 262 262 262 263 264 265 265 266
262 261 260 259 254 248 242 239 241 243 244 245 247 248 249 250 249 248 245 244 246 247 248 248 247 248 252 257 258 256 253 252 254 256 258 260 260 260 262 268 270 269
266 264 264 261 256 253 249 244 241 242 246 248 248 249 251 251 252 250 245 242 244 247 251 252 251 249 249 253 257 260 259 258 258 258 258 260 261 260 261 268 271 272
273 273 275 270 260 254 251 247 243 241 245 250 251 251 253 253 254 253 250 247 245 245 248 253 254 253 253 254 254 256 258 259 261 263 263 263 265 264 263 264 268 272
285 286 286 281 271 260 253 250 249 246 246 247 248 250 251 253 254 254 253 250 248 246 246 248 251 252 253 254 253 253 256 259 260 262 263 264 267 269 269 267 269 273
293 291 284 283 285 276 262 260 262 259 253 249 248 248 250 251 251 252 252 251 250 249 248 246 248 251 253 254 255 255 257 260 263 263 264 266 268 270 271 270 270 272
293 285 279 283 294 296 288 285 282 272 263 257 253 252 252 252 250 249 250 250 248 247 246 244 245 249 254 256 258 259 259 260 263 266 267 268 267 267 268 270 271 272
275 268 266 275 289 296 297 304 305 291 277 266 263 266 261 253 248 247 246 246 247 246 244 244 244 247 251 255 257 260 262 262 264 266 267 266 266 267 267 267 270 272
271 267 260 266 276 280 281 285 287 291 293 288 293 297 277 251 241 245 247 248 250 249 247 247 248 247 249 252 253 256 260 262 263 264 265 265 267 270 271 270 270 271
Height
3210 3211 3212 3213 3214 3215 3216 3217 3218 3219 3220 3221 3222 3223 3224 3224 3225 3226 3227 3227 3228 3229 3230 3230 3231 3232 3232 3233 3233 3234 3234 3235 3235 3235 3236 3236 3237 3237 3237 3237 3237 3237
3209 3211 3212 3213 3214 3215 3216 3217 3218 3219 3220 3221 3222 3223 3223 3224 3225 3226 3226 3227 3228 3228 3229 3229 3230 3231 3231 3232 3232 3233 3233 3234 3234 3234 3235 3235 3235 3236 3236 3236 3236 3236
3209 3210 3211 3212 3213 3214 3215 3216 3217 3218 3219 3220 3221 3222 3223 3224 3224 3225 3226 3227 3227 3228 3228 3229 3229 3230 3230 3231 3231 3232 3232 3233 3233 3233 3233 3234 3234 3234 3235 3235 3235 3235
3208 3209 3210 3211 3212 3213 3214 3215 3216 3217 3218 3219 3220 3221 3222 3223 3223 3224 3225 3226 3227 3227 3228 3228 3228 3229 3229 3230 3230 3231 3231 3232 3232 3232 3232 3233 3233 3233 3233 3233 3233 3233
3206 3207 3209 3210 3211 3212 3213 3214 3215 3216 3217 3218 3219 3220 3221 3221 3222 3223 3224 3225 3226 3226 3227 3227 3228 3228 3229 3229 3229 3230 3230 3231 3231 3231 3231 3231 3232 3232 3232 3232 3232 3232
3205 3206 3207 3208 3209 3211 3212 3213 3214 3215 3216 3216 3217 3218 3219 3220 3221 3222 3223 3224 3225 3225 3226 3226 3227 3227 3228 3228 3228 3229 3229 3229 3229 3229 3230 3230 3230 3231 3231 3231 3231 3231
3203 3204 3205 3207 3208 3209 3210 3211 3212 3213 3214 3215 3216 3217 3218 3219 3220 3221 3222 3222 3223 3224 3224 3225 3225 3226 3226 3227 3227 3227 3228 3228 3228 3228 3229 3229 3229 3229 3229 3229 3229 3229
3202 3203 3204 3205 3206 3208 3209 3210 3211 3212 3213 3214 3215 3215 3216 3217 3218 3219 3220 3221 3221 3222 3223 3223 3223 3224 3225 3225 3225 3226 3226 3227 3226 3226 3227 3228 3228 3228 3228 3228 3228 3228
3200 3200 3201 3203 3204 3206 3207 3208 3209 3210 3211 3212 3213 3214 3215 3215 3216 3217 3218 3219 3220 3220 3221 3221 3222 3222 3223 3223 3224 3224 3224 3225 3225 3225 3225 3226 3226 3226 3226 3226 3226 3226
3198 3198 3199 3201 3203 3204 3205 3206 3207 3208 3209 3210 3211 3212 3213 3213 3214 3215 3216 3217 3218 3218 3219 3220 3220 3221 3221 3221 3222 3222 3223 3223 3223 3223 3223 3224 3224 3224 3224 3224 3224 3224
3196 3197 3198 3199 3201 3202 3203 3204 3205 3206 3207 3208 3209 3210 3211 3211 3212 3213 3214 3214 3215 3216 3217 3218 3218 3219 3219 3220 3220 3220 3221 3221 3221 3221 3221 3221 3222 3222 3222 3222 3222 3223
3194 3196 3197 3198 3199 3200 3201 3203 3203 3204 3205 3206 3207 3208 3209 3209 3210 3210 3211 3212 3213 3214 3215 3216 3216 3217 3217 3218 3218 3218 3219 3219 3219 3219 3219 3219 3219 3220 3220 3220 3220 3220
3191 3193 3196 3197 3197 3198 3199 3200 3201 3202 3203 3204 3204 3205 3206 3207 3207 3208 3208 3209 3211 3212 3213 3213 3214 3214 3215 3215 3216 3217 3217 3217 3217 3217 3217 3217 3217 3218 3218 3218 3218 3218
3187 3189 3192 3195 3195 3196 3196 3198 3199 3200 3200 3201 3201 3202 3203 3204 3205 3206 3206 3206 3208 3210 3210 3211 3211 3212 3213 3213 3214 3215 3215 3215 3215 3215 3215 3215 3215 3216 3216 3216 3216 3216
3186 3185 3187 3189 3191 3193 3194 3196 3197 3197 3197 3198 3199 3200 3201 3201 3202 3203 3203 3204 3205 3206 3207 3208 3209 3209 3210 3211 3211 3212 3213 3213 3213 3213 3213 3213 3213 3213 3214 3214 3215 3215
3187 3187 3186 3185 3187 3190 3192 3193 3194 3194 3195 3195 3196 3197 3198 3200 3201 3201 3201 3201 3202 3203 3204 3205 3206 3207 3207 3208 3209 3210 3211 3211 3211 3211 3211 3211 3211 3211 3212 3212 3213 3213
3185 3187 3188 3186 3186 3187 3188 3190 3190 3191 3192 3193 3193 3194 3195 3197 3199 3200 3199 3199 3199 3200 3201 3203 3204 3204 3204 3204 3206 3207 3208 3208 3209 3209 3208 3209 3209 3210 3210 3210 3210 3210
3183 3184 3185 3186 3185 3185 3184 3185 3186 3188 3189 3190 3190 3191 3192 3193 3195 3196 3197 3197 3197 3197 3199 3199 3198 3199 3200 3202 3203 3205 3206 3206 3206 3206 3206 3206 3207 3207 3207 3207 3208 3208
3180 3181 3182 3183 3184 3183 3182 3181 3182 3184 3185 3186 3186 3187 3188 3189 3191 3191 3192 3194 3194 3196 3197 3195 3194 3195 3198 3199 3201 3203 3204 3204 3203 3203 3203 3202 3202 3203 3205 3205 3206 3206
3177 3178 3179 3179 3180 3181 3180 3179 3179 3180 3181 3182 3182 3183 3183 3185 3186 3187 3188 3190 3191 3193 3195 3194 3193 3193 3195 3196 3197 3199 3201 3201 3201 3201 3200 3199 3197 3199 3202 3203 3203 3203
3173 3174 3176 3176 3176 3176 3176 3177 3176 3176 3177 3178 3179 3179 3180 3181 3182 3183 3185 3186 3187 3189 3191 3191 3191 3192 3192 3193 3194 3195 3197 3198 3198 3198 3198 3197 3196 3197 3200 3200 3199 3199
3170 3171 3172 3172 3171 3171 3172 3173 3173 3171 3172 3174 3175 3175 3176 3177 3178 3179 3181 3182 3183 3184 3186 3186 3186 3188 3189 3189 3190 3191 3193 3194 3194 3194 3194 3195 3194 3195 3197 3197 3196 3196
3169 3169 3169 3168 3168 3168 3168 3169 3168 3167 3168 3170 3171 3171 3172 3173 3174 3175 3176 3178 3179 3180 3181 3181 3181 3182 3185 3185 3186 3187 3188 3189 3190 3190 3191 3192 3192 3192 3193 3193 3193 3192
3167 3167 3167 3167 3166 3166 3165 3165 3164 3162 3163 3164 3165 3166 3168 3169 3169 3170 3171 3173 3174 3175 3176 3176 3176 3178 3180 3182 3183 3183 3184 3185 3186 3186 3187 3188 3188 3188 3189 3189 3189 3188
3165 3166 3166 3166 3165 3164 3163 3162 3161 3160 3160 3160 3160 3161 3161 3161 3162 3164 3166 3167 3168 3169 3170 3172 3173 3174 3176 3178 3179 3180 3181 3182 3183 3182 3183 3184 3184 3183 3184 3184 3185 3184
3164 3164 3164 3164 3163 3162 3161 3160 3159 3159 3158 3157 3157 3157 3154 3152 3156 3160 3162 3163 3164 3165 3167 3169 3170 3172 3172 3174 3176 3177 3178 3179 3179 3179 3179 3180 3180 3180 3180 3180 3180 3179